Cloud_Cover
100 100 100 100 58 80 100 93 100 5 100 33 52 100 100 100 100 100 100 100 100 100 100 100 100 100 100 100 100 100 100 100 100 100 100 100 100 100 100 100 100 100 100 100
96 61 100 100 100 100 100 74 100 90 100 87 2 88 100 100 100 100 100 100 100 100 100 100 100 100 100 100 100 100 100 100 100 100 100 100 100 100 100 100 100 100 100 100
94 100 100 98 10 97 100 100 100 100 99 19 28 3 49 100 100 100 100 100 100 100 100 100 100 100 100 100 100 100 100 100 100 100 100 100 100 100 100 100 100 100 100 100
92 99 100 5 51 36 94 100 100 100 66 2 28 100 97 72 98 100 100 100 100 100 100 100 100 100 93 100 100 100 100 100 100 100 100 100 100 100 100 100 100 100 100 100
100 100 71 28 0 11 99 100 97 27 100 100 2 0 5 1 32 22 100 100 100 100 100 100 98 67 12 6 8 14 77 100 100 98 100 100 100 100 100 100 100 100 100 100
100 100 100 5 52 100 100 100 0 70 100 90 100 100 94 100 90 67 100 100 100 100 78 17 94 57 5 3 4 33 97 98 100 92 100 100 100 100 100 100 100 100 100 100
100 100 97 0 92 93 100 50 98 100 80 97 86 3 0 84 33 5 79 45 89 56 6 5 5 5 5 5 5 31 100 100 100 100 100 100 100 100 100 100 100 100 100 100
100 100 68 81 67 100 77 100 8 99 100 100 96 1 0 6 82 98 100 29 91 100 8 5 1 5 17 55 100 100 100 100 100 100 100 100 100 100 100 100 100 100 100 100
96 95 98 100 50 39 76 36 8 4 79 100 99 5 5 32 100 100 86 100 100 40 5 1 0 38 34 100 100 100 100 100 100 100 100 100 100 100 100 100 100 100 100 100
100 5 100 100 100 100 100 100 100 100 23 30 100 44 23 100 100 100 98 43 60 6 8 47 64 100 94 100 100 100 100 100 100 100 100 100 100 100 100 100 100 100 100 100
60 73 100 72 65 100 100 100 99 97 87 92 100 100 83 100 100 100 96 32 5 11 77 100 100 99 100 100 100 100 100 100 100 100 100 100 100 100 100 100 100 100 100 100
14 70 74 92 97 100 100 100 99 100 100 100 97 100 100 94 100 100 100 100 69 88 100 100 100 100 100 100 100 100 100 100 100 100 100 100 100 100 100 100 100 100 100 100
100 100 100 100 98 100 100 100 100 100 100 100 100 100 100 100 100 100 100 100 100 100 99 100 100 100 100 100 100 100 100 100 100 100 100 100 100 100 100 100 100 100 100 100
100 100 97 100 100 100 100 100 100 92 100 100 100 100 100 100 100 100 100 100 100 100 100 100 100 100 100 100 100 100 100 100 100 100 100 100 100 100 100 100 100 100 63 20
100 100 100 100 100 100 100 98 74 100 100 100 90 100 96 65 62 100 100 100 100 100 100 100 100 100 100 100 100 100 100 100 100 100 100 100 100 100 100 100 100 99 100 100
100 100 100 100 100 100 100 100 100 99 65 100 100 43 22 78 49 100 100 100 100 100 100 100 100 100 100 100 100 100 100 100 100 100 100 100 100 100 100 99 100 100 100 100
100 100 100 100 100 100 100 100 91 100 100 98 84 43 90 86 48 100 100 100 100 100 100 100 100 100 100 100 100 100 100 100 100 100 100 100 87 100 100 100 100 100 100 99
100 100 100 100 100 100 100 100 99 100 99 100 100 100 100 65 68 100 100 100 100 100 100 100 100 100 100 100 100 100 100 100 100 92 96 100 100 100 100 100 100 100 100 99
100 100 100 100 100 100 100 100 99 83 100 97 97 86 100 98 100 100 100 100 100 100 100 100 100 100 100 100 100 100 100 100 100 100 100 100 100 100 100 100 100 100 100 100
100 100 100 100 100 100 100 100 100 96 99 92 57 50 66 99 100 100 100 100 100 100 100 100 100 100 100 100 100 100 100 100 100 100 97 99 100 99 100 100 100 100 100 100
100 100 100 100 100 100 100 100 100 100 100 100 100 100 100 100 100 100 100 100 100 100 100 100 100 100 100 100 100 100 100 76 63 99 100 100 100 98 100 100 100 100 100 100
100 100 100 100 100 100 100 100 100 100 100 100 100 100 100 100 100 100 100 100 100 100 100 100 100 100 100 100 100 100 100 100 100 98 99 99 99 100 100 100 100 100 100 100
100 100 100 100 100 100 100 100 100 100 100 100 100 100 100 100 100 100 100 99 79 28 63 23 40 97 100 100 100 100 100 98 99 98 96 100 100 100 100 100 100 100 100 100
100 100 100 100 100 100 100 100 100 100 100 100 100 100 100 100 100 100 98 76 55 51 16 32 51 47 100 100 100 100 100 100 94 100 100 100 100 100 100 100 100 100 100 71
100 100 100 100 100 100 100 100 100 100 100 100 100 100 100 100 97 57 27 28 80 97 96 100 100 100 99 100 100 100 100 100 100 100 100 100 100 100 100 100 100 100 100 100
100 100 100 100 100 100 100 100 100 100 100 100 100 100 100 99 100 89 84 87 90 100 100 100 100 86 83 100 100 100 100 100 100 100 96 100 100 100 100 100 100 99 100 100
76 97 100 100 100 100 100 100 100 100 100 100 100 100 100 100 100 100 100 100 100 100 100 100 100 100 88 100 100 100 100 100 99 100 100 100 100 100 100 100 100 100 100 100